Location: Unspecified
(36.0237°N, 0.0000°E)
Time: 04:31:18
(UTC+00:00)

CSL-04 Deb - Visible Passes

Search period start: 04 April 2026 00:00
Search period end: 14 April 2026 00:00
Orbit: 650 x 751 km, 98.5° (Epoch: 29 March)

Date Brightness Start Highest point End Pass type
(mag) Time Alt. Az. Time Alt. Az. Time Alt. Az.
4 Apr ? 21:26:52 21° NNW 21:26:52 21° NNW 21:28:26 10° NNW visible
5 Apr ? 20:30:29 17° NNE 20:30:29 17° NNE 20:32:00 10° NNE visible
5 Apr ? 22:09:19 14° NW 22:09:19 14° NW 22:10:03 10° NW visible
6 Apr ? 21:12:57 24° N 21:12:57 24° N 21:14:52 10° N visible
7 Apr ? 20:16:34 14° NE 20:16:34 14° NE 20:17:52 10° NNE visible
7 Apr ? 21:55:24 19° NW 21:55:24 19° NW 21:56:47 10° NNW visible
8 Apr ? 20:59:00 25° NNE 20:59:00 25° NNE 21:01:11 10° N visible
9 Apr ? 20:02:37 11° NE 20:02:37 11° NE 20:03:13 10° NE visible
9 Apr ? 21:41:27 24° NNW 21:41:27 24° NNW 21:43:23 10° NNW visible
10 Apr ? 20:45:04 23° NNE 20:45:04 23° NNE 20:47:23 10° N visible
10 Apr ? 22:23:54 13° NW 22:23:54 13° NW 22:24:35 10° NW visible
11 Apr ? 21:27:29 30° NNW 21:27:29 30° NNW 21:29:52 10° NNW visible
12 Apr ? 20:31:06 20° NE 20:31:06 20° NE 20:33:27 10° NNE visible
12 Apr ? 22:09:56 18° NW 22:09:56 18° NW 22:11:27 10° NW visible
13 Apr ? 21:13:31 33° N 21:13:31 33° N 21:16:15 10° N visible
